Time,TemperatureF,DewpointF,PressureIn,WindDirection,WindDirectionDegrees,WindSpeedMPH,WindSpeedGustMPH,Humidity,HourlyPrecipIn,Conditions,Clouds,dailyrainin,SoftwareType,DateUTC
2013-04-24 00:01:00,54.8,43.7,30.08,NE,35,8.0,19.0,66,0.00,,SKC,0.00,VWS V14.01,2013-04-24 05:01:00,
2013-04-24 00:06:00,54.6,43.5,30.08,NNE,22,4.0,11.0,66,0.00,,SKC,0.00,VWS V14.01,2013-04-24 05:06:00,
2013-04-24 00:11:00,54.5,43.4,30.08,NNW,338,10.0,20.0,66,0.00,,SKC,0.00,VWS V14.01,2013-04-24 05:11:00,
2013-04-24 00:16:00,54.4,43.3,30.08,NNE,27,8.0,20.0,66,0.00,,SKC,0.00,VWS V14.01,2013-04-24 05:16:00,
2013-04-24 00:21:00,54.2,43.1,30.08,NNW,337,6.0,21.0,66,0.00,,SKC,0.00,VWS V14.01,2013-04-24 05:21:00,
2013-04-24 00:26:00,54.0,42.9,30.08,North,355,6.0,21.0,66,0.00,,SKC,0.00,VWS V14.01,2013-04-24 05:26:00,
2013-04-24 00:31:00,53.9,42.8,30.08,NNE,30,10.0,21.0,66,0.00,,SKC,0.00,VWS V14.01,2013-04-24 05:31:00,
2013-04-24 00:36:00,53.7,42.6,30.08,NE,48,6.0,18.0,66,0.00,,SKC,0.00,VWS V14.01,2013-04-24 05:36:00,
2013-04-24 00:41:00,53.5,42.4,30.08,North,5,8.0,18.0,66,0.00,,SKC,0.00,VWS V14.01,2013-04-24 05:41:00,
2013-04-24 00:46:00,53.3,42.2,30.08,NNE,18,12.0,18.0,66,0.00,,SKC,0.00,VWS V14.01,2013-04-24 05:46:00,
2013-04-24 00:51:00,53.1,42.5,30.08,NNW,337,4.0,18.0,67,0.00,,SKC,0.00,VWS V14.01,2013-04-24 05:51:00,
2013-04-24 00:56:00,53.0,42.3,30.09,NNW,335,10.0,18.0,67,0.00,,SKC,0.00,VWS V14.01,2013-04-24 05:56:00,
2013-04-24 01:01:00,52.7,42.1,30.09,North,355,12.0,24.0,67,0.00,,SKC,0.00,VWS V14.01,2013-04-24 06:01:00,
2013-04-24 01:06:00,52.2,42.0,30.09,North,11,11.0,19.0,68,0.00,,SKC,0.00,VWS V14.01,2013-04-24 06:06:00,
2013-04-24 01:11:00,52.0,42.2,30.09,NNW,341,12.0,19.0,69,0.00,,SKC,0.00,VWS V14.01,2013-04-24 06:11:00,
2013-04-24 01:16:00,51.8,42.0,30.10,North,360,11.0,23.0,69,0.00,,SKC,0.00,VWS V14.01,2013-04-24 06:16:00,
2013-04-24 01:21:00,51.5,41.7,30.10,North,355,15.0,23.0,69,0.00,,SKC,0.00,VWS V14.01,2013-04-24 06:21:00,
2013-04-24 01:26:00,51.4,42.0,30.11,NE,45,7.0,24.0,70,0.00,,SKC,0.00,VWS V14.01,2013-04-24 06:26:00,
2013-04-24 01:31:00,51.3,41.9,30.11,North,355,7.0,24.0,70,0.00,,SKC,0.00,VWS V14.01,2013-04-24 06:31:00,
2013-04-24 01:36:00,51.2,41.8,30.10,NNE,22,5.0,25.0,70,0.00,,SKC,0.00,VWS V14.01,2013-04-24 06:36:00,
2013-04-24 01:41:00,51.0,41.9,30.10,North,355,4.0,25.0,71,0.00,,SKC,0.00,VWS V14.01,2013-04-24 06:41:00,
2013-04-24 01:46:00,51.0,41.9,30.11,NNE,18,10.0,25.0,71,0.00,,SKC,0.00,VWS V14.01,2013-04-24 06:46:00,
2013-04-24 01:51:00,50.9,41.8,30.11,NNW,329,3.0,25.0,71,0.00,,SKC,0.00,VWS V14.01,2013-04-24 06:51:00,
2013-04-24 01:56:00,50.8,42.1,30.11,North,360,10.0,25.0,72,0.00,,SKC,0.00,VWS V14.01,2013-04-24 06:56:00,
2013-04-24 02:01:00,50.5,42.2,30.12,NE,46,20.0,25.0,73,0.00,,SKC,0.00,VWS V14.01,2013-04-24 07:01:00,
2013-04-24 02:06:00,50.1,41.8,30.11,North,350,8.0,23.0,73,0.00,,SKC,0.00,VWS V14.01,2013-04-24 07:06:00,
2013-04-24 02:11:00,49.9,42.0,30.12,NNW,336,14.0,23.0,74,0.00,,SKC,0.00,VWS V14.01,2013-04-24 07:11:00,
2013-04-24 02:16:00,49.7,41.8,30.11,NNE,14,12.0,23.0,74,0.00,,SKC,0.00,VWS V14.01,2013-04-24 07:16:00,
2013-04-24 02:21:00,49.6,42.0,30.11,NNW,340,6.0,23.0,75,0.00,,SKC,0.00,VWS V14.01,2013-04-24 07:21:00,
2013-04-24 02:26:00,49.5,41.6,30.12,NNW,342,5.0,23.0,74,0.00,,SKC,0.00,VWS V14.01,2013-04-24 07:26:00,
2013-04-24 02:31:00,49.5,41.6,30.12,North,10,1.0,23.0,74,0.00,,SKC,0.00,VWS V14.01,2013-04-24 07:31:00,
2013-04-24 02:36:00,49.5,41.6,30.12,NW,304,5.0,15.0,74,0.00,,SKC,0.00,VWS V14.01,2013-04-24 07:36:00,
2013-04-24 02:41:00,49.5,41.6,30.12,North,355,6.0,21.0,74,0.00,,SKC,0.00,VWS V14.01,2013-04-24 07:41:00,
2013-04-24 02:46:00,49.4,41.5,30.12,NNW,342,11.0,21.0,74,0.00,,SKC,0.00,VWS V14.01,2013-04-24 07:46:00,
2013-04-24 02:51:00,49.2,41.3,30.12,NNE,16,13.0,21.0,74,0.00,,SKC,0.00,VWS V14.01,2013-04-24 07:51:00,
2013-04-24 02:56:00,49.1,41.2,30.12,NNE,27,4.0,21.0,74,0.00,,SKC,0.00,VWS V14.01,2013-04-24 07:56:00,
2013-04-24 03:01:00,49.0,41.1,30.13,NW,318,5.0,21.0,74,0.00,,SKC,0.00,VWS V14.01,2013-04-24 08:01:00,
2013-04-24 03:06:00,49.0,41.1,30.13,NNE,24,7.0,17.0,74,0.00,,SKC,0.00,VWS V14.01,2013-04-24 08:06:00,
2013-04-24 03:11:00,48.9,41.0,30.13,NNE,30,6.0,21.0,74,0.00,,SKC,0.00,VWS V14.01,2013-04-24 08:11:00,
2013-04-24 03:16:00,48.8,41.2,30.13,NNW,340,7.0,21.0,75,0.00,,SKC,0.00,VWS V14.01,2013-04-24 08:16:00,
2013-04-24 03:21:00,48.7,41.1,30.13,North,360,14.0,21.0,75,0.00,,SKC,0.00,VWS V14.01,2013-04-24 08:21:00,
2013-04-24 03:26:00,48.5,41.0,30.14,North,5,14.0,21.0,75,0.00,,SKC,0.00,VWS V14.01,2013-04-24 08:26:00,
2013-04-24 03:31:00,48.4,40.8,30.13,North,5,6.0,21.0,75,0.00,,SKC,0.00,VWS V14.01,2013-04-24 08:31:00,
2013-04-24 03:36:00,48.3,40.8,30.14,NNE,17,7.0,19.0,75,0.00,,SKC,0.00,VWS V14.01,2013-04-24 08:36:00,
2013-04-24 03:41:00,48.1,40.6,30.14,North,360,11.0,20.0,75,0.00,,SKC,0.00,VWS V14.01,2013-04-24 08:41:00,
2013-04-24 03:46:00,47.9,40.4,30.14,NE,44,6.0,20.0,75,0.00,,SKC,0.00,VWS V14.01,2013-04-24 08:46:00,
2013-04-24 03:51:00,47.8,40.6,30.14,NE,42,10.0,20.0,76,0.00,,SKC,0.00,VWS V14.01,2013-04-24 08:51:00,
2013-04-24 03:56:00,47.7,40.5,30.14,North,355,5.0,20.0,76,0.00,,SKC,0.00,VWS V14.01,2013-04-24 08:56:00,
2013-04-24 04:01:00,47.6,40.4,30.14,NE,36,6.0,24.0,76,0.00,,SKC,0.00,VWS V14.01,2013-04-24 09:01:00,
2013-04-24 04:06:00,47.4,40.2,30.14,NNE,16,9.0,22.0,76,0.00,,SKC,0.00,VWS V14.01,2013-04-24 09:06:00,
2013-04-24 04:11:00,47.2,40.0,30.15,NW,326,9.0,28.0,76,0.00,,SKC,0.00,VWS V14.01,2013-04-24 09:11:00,
2013-04-24 04:16:00,47.1,39.9,30.15,North,11,11.0,28.0,76,0.00,,SKC,0.00,VWS V14.01,2013-04-24 09:16:00,
2013-04-24 04:21:00,47.0,39.8,30.15,NW,321,11.0,28.0,76,0.00,,SKC,0.00,VWS V14.01,2013-04-24 09:21:00,
2013-04-24 04:26:00,46.9,39.7,30.16,North,349,12.0,28.0,76,0.00,,SKC,0.00,VWS V14.01,2013-04-24 09:26:00,
2013-04-24 04:31:00,46.8,39.7,30.16,North,9,11.0,28.0,76,0.00,,SKC,0.00,VWS V14.01,2013-04-24 09:31:00,
2013-04-24 04:36:00,46.7,39.5,30.16,ENE,57,15.0,21.0,76,0.00,,SKC,0.00,VWS V14.01,2013-04-24 09:36:00,
2013-04-24 04:41:00,46.6,39.5,30.16,North,9,12.0,22.0,76,0.00,,SKC,0.00,VWS V14.01,2013-04-24 09:41:00,
2013-04-24 04:46:00,46.5,39.7,30.17,ENE,63,11.0,22.0,77,0.00,,SKC,0.00,VWS V14.01,2013-04-24 09:46:00,
2013-04-24 04:51:00,46.3,39.5,30.17,NNE,27,10.0,22.0,77,0.00,,SKC,0.00,VWS V14.01,2013-04-24 09:51:00,
2013-04-24 04:56:00,46.1,39.6,30.16,NNW,342,7.0,22.0,78,0.00,,SKC,0.00,VWS V14.01,2013-04-24 09:56:00,
2013-04-24 05:01:00,46.1,39.6,30.16,NNW,331,9.0,22.0,78,0.00,,SKC,0.00,VWS V14.01,2013-04-24 10:01:00,
2013-04-24 05:06:00,46.0,39.9,30.16,NNE,19,6.0,15.0,79,0.00,,SKC,0.00,VWS V14.01,2013-04-24 10:06:00,
2013-04-24 05:11:00,46.1,40.0,30.16,North,5,1.0,15.0,79,0.00,,SKC,0.00,VWS V14.01,2013-04-24 10:11:00,
2013-04-24 05:16:00,46.1,40.0,30.16,North,5,6.0,15.0,79,0.00,,SKC,0.00,VWS V14.01,2013-04-24 10:16:00,
2013-04-24 05:21:00,46.2,40.1,30.16,NNW,346,3.0,15.0,79,0.00,,SKC,0.00,VWS V14.01,2013-04-24 10:21:00,
2013-04-24 05:25:00,46.4,40.2,30.16,North,360,1.0,15.0,79,0.00,,SKC,0.00,VWS V14.01,2013-04-24 10:25:00,
2013-04-24 05:30:00,46.5,40.3,30.16,NE,46,5.0,15.0,79,0.00,,SKC,0.00,VWS V14.01,2013-04-24 10:30:00,
2013-04-24 05:35:00,46.6,40.5,30.16,NNE,24,5.0,15.0,79,0.00,,SKC,0.00,VWS V14.01,2013-04-24 10:35:00,
2013-04-24 05:40:00,46.7,40.5,30.17,North,351,2.0,15.0,79,0.00,,SKC,0.00,VWS V14.01,2013-04-24 10:40:00,
2013-04-24 05:45:00,46.7,40.5,30.17,North,9,5.0,15.0,79,0.00,,SKC,0.00,VWS V14.01,2013-04-24 10:45:00,
2013-04-24 05:50:00,46.8,40.3,30.16,NNE,18,12.0,15.0,78,0.00,,SKC,0.00,VWS V14.01,2013-04-24 10:50:00,
2013-04-24 05:55:00,46.8,40.3,30.17,NNE,19,4.0,19.0,78,0.00,,SKC,0.00,VWS V14.01,2013-04-24 10:55:00,
2013-04-24 06:00:00,46.9,40.1,30.17,NNW,329,6.0,19.0,77,0.00,,SKC,0.00,VWS V14.01,2013-04-24 11:00:00,
2013-04-24 06:05:00,46.9,39.7,30.17,NNE,18,13.0,19.0,76,0.00,,SKC,0.00,VWS V14.01,2013-04-24 11:05:00,
2013-04-24 06:10:00,46.9,39.4,30.17,NNE,17,12.0,20.0,75,0.00,,SKC,0.00,VWS V14.01,2013-04-24 11:10:00,
2013-04-24 06:15:00,46.9,39.4,30.17,NNE,13,6.0,20.0,75,0.00,,SKC,0.00,VWS V14.01,2013-04-24 11:15:00,
2013-04-24 06:20:00,46.8,39.0,30.17,ENE,64,5.0,26.0,74,0.00,,SKC,0.00,VWS V14.01,2013-04-24 11:20:00,
2013-04-24 06:25:00,46.7,38.9,30.17,North,5,13.0,26.0,74,0.00,,SKC,0.00,VWS V14.01,2013-04-24 11:25:00,
2013-04-24 06:30:00,46.8,39.0,30.18,NE,38,10.0,26.0,74,0.00,,SKC,0.00,VWS V14.01,2013-04-24 11:30:00,
2013-04-24 06:35:00,46.7,38.5,30.17,North,351,7.0,17.0,73,0.00,,SKC,0.00,VWS V14.01,2013-04-24 11:35:00,
2013-04-24 06:40:00,46.7,38.5,30.18,NNW,348,16.0,19.0,73,0.00,,SKC,0.00,VWS V14.01,2013-04-24 11:40:00,
2013-04-24 06:45:00,46.7,38.5,30.18,ENE,64,7.0,19.0,73,0.00,,SKC,0.00,VWS V14.01,2013-04-24 11:45:00,
2013-04-24 06:50:00,46.6,38.4,30.18,NW,311,13.0,19.0,73,0.00,,SKC,0.00,VWS V14.01,2013-04-24 11:50:00,
2013-04-24 06:55:00,46.6,38.1,30.19,North,355,10.0,21.0,72,0.00,,SKC,0.00,VWS V14.01,2013-04-24 11:55:00,
2013-04-24 07:00:00,46.5,37.6,30.19,NNW,342,7.0,21.0,71,0.00,,SKC,0.00,VWS V14.01,2013-04-24 12:00:00,
2013-04-24 07:05:00,46.5,37.6,30.19,NNW,348,4.0,18.0,71,0.00,,SKC,0.00,VWS V14.01,2013-04-24 12:05:00,
2013-04-24 07:10:00,46.5,37.6,30.19,NNE,26,9.0,23.0,71,0.00,,SKC,0.00,VWS V14.01,2013-04-24 12:10:00,
2013-04-24 07:15:00,46.5,37.6,30.19,NNE,18,14.0,23.0,71,0.00,,SKC,0.00,VWS V14.01,2013-04-24 12:15:00,
2013-04-24 07:20:00,46.5,37.6,30.20,NE,52,4.0,23.0,71,0.00,,SKC,0.00,VWS V14.01,2013-04-24 12:20:00,
2013-04-24 07:25:00,46.5,37.6,30.20,North,360,6.0,23.0,71,0.00,,SKC,0.00,VWS V14.01,2013-04-24 12:25:00,
2013-04-24 07:30:00,46.5,37.6,30.20,North,360,13.0,23.0,71,0.00,,SKC,0.00,VWS V14.01,2013-04-24 12:30:00,
2013-04-24 07:35:00,46.5,37.3,30.21,NNE,25,16.0,18.0,70,0.00,,SKC,0.00,VWS V14.01,2013-04-24 12:35:00,
2013-04-24 07:40:00,46.4,37.2,30.21,NNW,338,11.0,18.0,70,0.00,,SKC,0.00,VWS V14.01,2013-04-24 12:40:00,
2013-04-24 07:45:00,46.4,37.2,30.21,NNE,21,15.0,18.0,70,0.00,,SKC,0.00,VWS V14.01,2013-04-24 12:45:00,
2013-04-24 07:50:00,46.4,37.2,30.21,North,355,4.0,18.0,70,0.00,,SKC,0.00,VWS V14.01,2013-04-24 12:50:00,
2013-04-24 07:55:00,46.3,37.1,30.21,NNW,336,11.0,18.0,70,0.00,,SKC,0.00,VWS V14.01,2013-04-24 12:55:00,
2013-04-24 08:00:00,46.4,37.2,30.22,North,5,5.0,18.0,70,0.00,,SKC,0.00,VWS V14.01,2013-04-24 13:00:00,
2013-04-24 08:05:00,46.4,37.2,30.22,NE,43,10.0,17.0,70,0.00,,SKC,0.00,VWS V14.01,2013-04-24 13:05:00,
2013-04-24 08:10:00,46.5,37.3,30.22,NNW,331,13.0,17.0,70,0.00,,SKC,0.00,VWS V14.01,2013-04-24 13:10:00,
2013-04-24 08:15:00,46.5,37.3,30.22,NNW,341,6.0,17.0,70,0.00,,SKC,0.00,VWS V14.01,2013-04-24 13:15:00,
2013-04-24 08:20:00,46.4,37.2,30.23,NE,49,7.0,17.0,70,0.00,,SKC,0.00,VWS V14.01,2013-04-24 13:20:00,
2013-04-24 08:25:00,46.3,37.1,30.22,NNE,26,12.0,17.0,70,0.00,,SKC,0.00,VWS V14.01,2013-04-24 13:25:00,
2013-04-24 08:30:00,46.4,37.2,30.22,North,9,10.0,17.0,70,0.00,,SKC,0.00,VWS V14.01,2013-04-24 13:30:00,
2013-04-24 08:35:00,46.5,37.3,30.22,North,355,16.0,16.0,70,0.00,,SKC,0.00,VWS V14.01,2013-04-24 13:35:00,
2013-04-24 08:40:00,46.5,36.9,30.23,North,5,7.0,16.0,69,0.00,,SKC,0.00,VWS V14.01,2013-04-24 13:40:00,
2013-04-24 08:45:00,46.5,37.6,30.23,North,5,4.0,16.0,71,0.00,,SKC,0.00,VWS V14.01,2013-04-24 13:45:00,
2013-04-24 08:50:00,46.3,37.4,30.23,North,349,9.0,18.0,71,0.00,,SKC,0.00,VWS V14.01,2013-04-24 13:50:00,
2013-04-24 08:55:00,46.3,37.4,30.23,North,355,7.0,18.0,71,0.00,,SKC,0.00,VWS V14.01,2013-04-24 13:55:00,
2013-04-24 09:00:00,46.2,37.3,30.23,NNW,328,15.0,18.0,71,0.00,,SKC,0.00,VWS V14.01,2013-04-24 14:00:00,
2013-04-24 09:05:00,46.3,37.8,30.24,NW,323,6.0,19.0,72,0.00,,SKC,0.00,VWS V14.01,2013-04-24 14:05:00,
2013-04-24 09:10:00,46.1,37.6,30.24,North,355,12.0,19.0,72,0.00,,SKC,0.00,VWS V14.01,2013-04-24 14:10:00,
2013-04-24 09:15:00,46.0,37.5,30.24,NNE,26,6.0,19.0,72,0.00,,SKC,0.00,VWS V14.01,2013-04-24 14:15:00,
2013-04-24 09:20:00,46.0,37.5,30.24,North,360,7.0,19.0,72,0.00,,SKC,0.00,VWS V14.01,2013-04-24 14:20:00,
2013-04-24 09:25:00,46.2,37.3,30.24,North,355,1.0,19.0,71,0.00,,SKC,0.00,VWS V14.01,2013-04-24 14:25:00,
2013-04-24 09:30:00,46.4,37.5,30.25,NNE,31,3.0,19.0,71,0.00,,SKC,0.00,VWS V14.01,2013-04-24 14:30:00,
2013-04-24 09:35:00,46.5,37.3,30.25,NW,319,6.0,12.0,70,0.00,,SKC,0.00,VWS V14.01,2013-04-24 14:35:00,
2013-04-24 09:40:00,46.7,37.1,30.26,NNE,13,6.0,19.0,69,0.00,,SKC,0.00,VWS V14.01,2013-04-24 14:40:00,
2013-04-24 09:45:00,46.9,36.9,30.26,North,355,6.0,19.0,68,0.00,,SKC,0.00,VWS V14.01,2013-04-24 14:45:00,
2013-04-24 09:50:00,47.1,36.7,30.26,NNE,13,12.0,20.0,67,0.00,,SKC,0.00,VWS V14.01,2013-04-24 14:50:00,
2013-04-24 09:55:00,47.2,36.4,30.26,NNE,19,9.0,20.0,66,0.00,,SKC,0.00,VWS V14.01,2013-04-24 14:55:00,
2013-04-24 10:00:00,47.3,36.9,30.25,NNE,15,9.0,20.0,67,0.00,,SKC,0.00,VWS V14.01,2013-04-24 15:00:00,
2013-04-24 10:05:00,47.5,37.1,30.25,NNE,17,3.0,14.0,67,0.00,,SKC,0.00,VWS V14.01,2013-04-24 15:05:00,
2013-04-24 10:10:00,47.7,36.9,30.25,NNE,12,12.0,16.0,66,0.00,,SKC,0.00,VWS V14.01,2013-04-24 15:10:00,
2013-04-24 10:15:00,47.9,36.7,30.25,NNW,332,13.0,16.0,65,0.00,,SKC,0.00,VWS V14.01,2013-04-24 15:15:00,
2013-04-24 10:20:00,47.9,36.3,30.25,North,350,15.0,21.0,64,0.00,,SKC,0.00,VWS V14.01,2013-04-24 15:20:00,
2013-04-24 10:25:00,48.0,36.4,30.25,NNE,12,9.0,21.0,64,0.00,,SKC,0.00,VWS V14.01,2013-04-24 15:25:00,
2013-04-24 10:30:00,48.1,36.1,30.25,NNW,343,2.0,21.0,63,0.00,,SKC,0.00,VWS V14.01,2013-04-24 15:30:00,
2013-04-24 10:35:00,48.2,36.2,30.25,North,360,5.0,18.0,63,0.00,,SKC,0.00,VWS V14.01,2013-04-24 15:35:00,
2013-04-24 10:40:00,48.4,36.4,30.23,NNW,344,10.0,19.0,63,0.00,,SKC,0.00,VWS V14.01,2013-04-24 15:40:00,
2013-04-24 10:45:00,48.5,36.5,30.24,NNE,31,12.0,22.0,63,0.00,,SKC,0.00,VWS V14.01,2013-04-24 15:45:00,
2013-04-24 10:50:00,48.6,36.2,30.24,North,355,13.0,22.0,62,0.00,,SKC,0.00,VWS V14.01,2013-04-24 15:50:00,
2013-04-24 10:55:00,48.7,36.3,30.24,North,350,16.0,22.0,62,0.00,,SKC,0.00,VWS V14.01,2013-04-24 15:55:00,
2013-04-24 11:00:00,49.0,36.2,30.24,North,9,13.0,22.0,61,0.00,,SKC,0.00,VWS V14.01,2013-04-24 16:00:00,
2013-04-24 11:05:00,49.3,36.0,30.25,NNW,339,5.0,21.0,60,0.00,,SKC,0.00,VWS V14.01,2013-04-24 16:05:00,
2013-04-24 11:10:00,49.7,36.4,30.24,NW,322,10.0,21.0,60,0.00,,SKC,0.00,VWS V14.01,2013-04-24 16:10:00,
2013-04-24 11:15:00,50.2,36.4,30.25,North,355,9.0,21.0,59,0.00,,SKC,0.00,VWS V14.01,2013-04-24 16:15:00,
2013-04-24 11:20:00,50.7,36.9,30.26,NNW,327,12.0,21.0,59,0.00,,SKC,0.00,VWS V14.01,2013-04-24 16:20:00,
2013-04-24 11:25:00,51.2,37.0,30.26,North,360,10.0,21.0,58,0.00,,SKC,0.00,VWS V14.01,2013-04-24 16:25:00,
2013-04-24 11:30:00,51.7,37.4,30.26,NNW,342,4.0,21.0,58,0.00,,SKC,0.00,VWS V14.01,2013-04-24 16:30:00,
2013-04-24 11:35:00,52.1,37.3,30.25,NNE,12,7.0,13.0,57,0.00,,SKC,0.00,VWS V14.01,2013-04-24 16:35:00,
2013-04-24 11:40:00,52.5,37.3,30.26,NNE,19,13.0,16.0,56,0.00,,SKC,0.00,VWS V14.01,2013-04-24 16:40:00,
2013-04-24 11:45:00,52.8,37.5,30.26,NW,325,6.0,16.0,56,0.00,,SKC,0.00,VWS V14.01,2013-04-24 16:45:00,
2013-04-24 11:50:00,53.1,37.8,30.25,North,350,6.0,16.0,56,0.00,,SKC,0.00,VWS V14.01,2013-04-24 16:50:00,
2013-04-24 11:55:00,53.3,37.1,30.25,NNW,347,11.0,19.0,54,0.00,,SKC,0.00,VWS V14.01,2013-04-24 16:55:00,
2013-04-24 12:00:00,53.6,37.8,30.25,NNE,17,11.0,20.0,55,0.00,,SKC,0.00,VWS V14.01,2013-04-24 17:00:00,
2013-04-24 12:05:00,54.1,37.4,30.25,NNW,333,9.0,16.0,53,0.00,,SKC,0.00,VWS V14.01,2013-04-24 17:05:00,
2013-04-24 12:10:00,54.4,38.1,30.25,NNE,15,4.0,16.0,54,0.00,,SKC,0.00,VWS V14.01,2013-04-24 17:10:00,
2013-04-24 12:15:00,55.0,37.7,30.24,East,79,4.0,16.0,52,0.00,,SKC,0.00,VWS V14.01,2013-04-24 17:15:00,
2013-04-24 12:20:00,55.3,37.5,30.24,NNW,338,15.0,18.0,51,0.00,,SKC,0.00,VWS V14.01,2013-04-24 17:20:00,
2013-04-24 12:25:00,55.6,37.8,30.24,NNE,24,13.0,18.0,51,0.00,,SKC,0.00,VWS V14.01,2013-04-24 17:25:00,
2013-04-24 12:30:00,55.9,37.5,30.24,NNE,14,3.0,18.0,50,0.00,,SKC,0.00,VWS V14.01,2013-04-24 17:30:00,
2013-04-24 12:35:00,56.2,37.3,30.25,East,81,12.0,15.0,49,0.00,,SKC,0.00,VWS V14.01,2013-04-24 17:35:00,
2013-04-24 12:40:00,56.2,37.3,30.25,NE,54,9.0,17.0,49,0.00,,SKC,0.00,VWS V14.01,2013-04-24 17:40:00,
2013-04-24 12:45:00,56.3,37.4,30.25,NNE,25,4.0,17.0,49,0.00,,SKC,0.00,VWS V14.01,2013-04-24 17:45:00,
2013-04-24 12:50:00,56.6,37.2,30.24,NNW,346,9.0,17.0,48,0.00,,SKC,0.00,VWS V14.01,2013-04-24 17:50:00,
2013-04-24 12:55:00,56.8,37.9,30.24,NNE,26,15.0,17.0,49,0.00,,SKC,0.00,VWS V14.01,2013-04-24 17:55:00,
2013-04-24 13:00:00,57.0,37.5,30.24,NNW,345,7.0,17.0,48,0.00,,SKC,0.00,VWS V14.01,2013-04-24 18:00:00,
2013-04-24 13:05:00,57.1,37.6,30.23,North,5,4.0,18.0,48,0.00,,SKC,0.00,VWS V14.01,2013-04-24 18:05:00,
2013-04-24 13:10:00,57.1,37.1,30.23,NNE,27,11.0,18.0,47,0.00,,SKC,0.00,VWS V14.01,2013-04-24 18:10:00,
2013-04-24 13:15:00,57.1,37.1,30.24,NNW,339,6.0,18.0,47,0.00,,SKC,0.00,VWS V14.01,2013-04-24 18:15:00,
2013-04-24 13:20:00,57.4,37.3,30.24,NNE,26,6.0,18.0,47,0.00,,SKC,0.00,VWS V14.01,2013-04-24 18:20:00,
2013-04-24 13:25:00,57.5,36.9,30.23,NNE,26,8.0,18.0,46,0.00,,SKC,0.00,VWS V14.01,2013-04-24 18:25:00,
2013-04-24 13:30:00,57.6,37.5,30.24,ENE,65,4.0,18.0,47,0.00,,SKC,0.00,VWS V14.01,2013-04-24 18:30:00,
2013-04-24 13:35:00,57.9,37.3,30.24,NE,53,11.0,14.0,46,0.00,,SKC,0.00,VWS V14.01,2013-04-24 18:35:00,
2013-04-24 13:40:00,57.7,37.1,30.24,North,350,10.0,16.0,46,0.00,,SKC,0.00,VWS V14.01,2013-04-24 18:40:00,
2013-04-24 13:45:00,57.7,38.2,30.23,NNW,327,6.0,16.0,48,0.00,,SKC,0.00,VWS V14.01,2013-04-24 18:45:00,
2013-04-24 13:50:00,57.8,37.2,30.23,WNW,302,8.0,16.0,46,0.00,,SKC,0.00,VWS V14.01,2013-04-24 18:50:00,
2013-04-24 13:55:00,58.0,37.4,30.23,NNE,33,12.0,20.0,46,0.00,,SKC,0.00,VWS V14.01,2013-04-24 18:55:00,
2013-04-24 14:00:00,57.8,37.2,30.23,North,360,6.0,20.0,46,0.00,,SKC,0.00,VWS V14.01,2013-04-24 19:00:00,
2013-04-24 14:05:00,57.8,37.2,30.23,NNE,18,3.0,13.0,46,0.00,,SKC,0.00,VWS V14.01,2013-04-24 19:05:00,
2013-04-24 14:10:00,58.0,37.4,30.23,NNE,16,2.0,13.0,46,0.00,,SKC,0.00,VWS V14.01,2013-04-24 19:10:00,
2013-04-24 14:15:00,58.2,37.5,30.22,NNE,25,2.0,13.0,46,0.00,,SKC,0.00,VWS V14.01,2013-04-24 19:15:00,
2013-04-24 14:20:00,58.4,37.7,30.23,NE,42,2.0,14.0,46,0.00,,SKC,0.00,VWS V14.01,2013-04-24 19:20:00,
2013-04-24 14:25:00,58.5,37.8,30.23,North,360,4.0,14.0,46,0.00,,SKC,0.00,VWS V14.01,2013-04-24 19:25:00,
2013-04-24 14:30:00,58.6,37.3,30.23,North,9,10.0,14.0,45,0.00,,SKC,0.00,VWS V14.01,2013-04-24 19:30:00,
2013-04-24 14:35:00,58.5,37.8,30.22,NW,319,6.0,14.0,46,0.00,,SKC,0.00,VWS V14.01,2013-04-24 19:35:00,
2013-04-24 14:40:00,58.6,37.9,30.23,North,5,4.0,14.0,46,0.00,,SKC,0.00,VWS V14.01,2013-04-24 19:40:00,
2013-04-24 14:45:00,58.8,38.6,30.23,NE,38,5.0,14.0,47,0.00,,SKC,0.00,VWS V14.01,2013-04-24 19:45:00,
2013-04-24 14:50:00,59.1,38.4,30.23,NW,313,11.0,14.0,46,0.00,,SKC,0.00,VWS V14.01,2013-04-24 19:50:00,
2013-04-24 14:55:00,59.5,38.2,30.22,North,9,11.0,14.0,45,0.00,,SKC,0.00,VWS V14.01,2013-04-24 19:55:00,
2013-04-24 15:00:00,59.6,38.2,30.22,NNE,23,5.0,14.0,45,0.00,,SKC,0.00,VWS V14.01,2013-04-24 20:00:00,
2013-04-24 15:05:00,59.7,38.3,30.22,NNW,340,5.0,12.0,45,0.00,,SKC,0.00,VWS V14.01,2013-04-24 20:05:00,
2013-04-24 15:10:00,59.8,38.4,30.22,North,355,1.0,13.0,45,0.00,,SKC,0.00,VWS V14.01,2013-04-24 20:10:00,
2013-04-24 15:15:00,59.8,38.4,30.22,North,360,5.0,14.0,45,0.00,,SKC,0.00,VWS V14.01,2013-04-24 20:15:00,
2013-04-24 15:20:00,59.8,38.4,30.22,North,10,2.0,14.0,45,0.00,,SKC,0.00,VWS V14.01,2013-04-24 20:20:00,
2013-04-24 15:25:00,59.9,38.5,30.22,North,350,0.0,14.0,45,0.00,,SKC,0.00,VWS V14.01,2013-04-24 20:25:00,
2013-04-24 15:30:00,59.9,38.0,30.22,North,355,0.0,14.0,44,0.00,,SKC,0.00,VWS V14.01,2013-04-24 20:30:00,
2013-04-24 15:35:00,60.0,38.6,30.22,ENE,74,4.0,10.0,45,0.00,,SKC,0.00,VWS V14.01,2013-04-24 20:35:00,
2013-04-24 15:40:00,60.1,38.7,30.22,ENE,75,7.0,10.0,45,0.00,,SKC,0.00,VWS V14.01,2013-04-24 20:40:00,
2013-04-24 15:45:00,60.2,38.8,30.22,NE,47,0.0,10.0,45,0.00,,SKC,0.00,VWS V14.01,2013-04-24 20:45:00,
2013-04-24 15:50:00,60.4,39.0,30.22,North,360,5.0,11.0,45,0.00,,SKC,0.00,VWS V14.01,2013-04-24 20:50:00,
2013-04-24 15:55:00,60.6,38.6,30.22,North,9,1.0,11.0,44,0.00,,SKC,0.00,VWS V14.01,2013-04-24 20:55:00,
2013-04-24 16:00:00,60.7,38.7,30.22,NE,47,5.0,11.0,44,0.00,,SKC,0.00,VWS V14.01,2013-04-24 21:00:00,
2013-04-24 16:05:00,60.7,39.3,30.21,NNW,346,11.0,12.0,45,0.00,,SKC,0.00,VWS V14.01,2013-04-24 21:05:00,
2013-04-24 16:10:00,60.7,38.7,30.21,NE,39,3.0,12.0,44,0.00,,SKC,0.00,VWS V14.01,2013-04-24 21:10:00,
2013-04-24 16:15:00,60.7,39.3,30.21,NE,34,0.0,12.0,45,0.00,,SKC,0.00,VWS V14.01,2013-04-24 21:15:00,
2013-04-24 16:20:00,60.8,39.3,30.21,NE,41,5.0,12.0,45,0.00,,SKC,0.00,VWS V14.01,2013-04-24 21:20:00,
2013-04-24 16:25:00,60.9,39.4,30.21,East,79,2.0,12.0,45,0.00,,SKC,0.00,VWS V14.01,2013-04-24 21:25:00,
2013-04-24 16:30:00,61.0,39.0,30.21,North,355,5.0,12.0,44,0.00,,SKC,0.00,VWS V14.01,2013-04-24 21:30:00,
2013-04-24 16:35:00,61.0,39.5,30.21,ENE,66,1.0,6.0,45,0.00,,SKC,0.00,VWS V14.01,2013-04-24 21:35:00,
2013-04-24 16:40:00,61.1,39.6,30.20,ENE,70,5.0,9.0,45,0.00,,SKC,0.00,VWS V14.01,2013-04-24 21:40:00,
2013-04-24 16:45:00,61.2,39.1,30.20,NNW,333,7.0,10.0,44,0.00,,SKC,0.00,VWS V14.01,2013-04-24 21:45:00,
2013-04-24 16:50:00,61.3,39.2,30.20,NNE,13,7.0,10.0,44,0.00,,SKC,0.00,VWS V14.01,2013-04-24 21:50:00,
2013-04-24 16:55:00,61.1,39.0,30.20,NNW,344,6.0,11.0,44,0.00,,SKC,0.00,VWS V14.01,2013-04-24 21:55:00,
2013-04-24 17:00:00,61.1,39.0,30.20,NNE,13,2.0,14.0,44,0.00,,SKC,0.00,VWS V14.01,2013-04-24 22:00:00,
2013-04-24 17:05:00,61.1,39.0,30.19,NE,44,1.0,11.0,44,0.00,,SKC,0.00,VWS V14.01,2013-04-24 22:05:00,
2013-04-24 17:10:00,61.3,39.2,30.20,NE,43,3.0,11.0,44,0.00,,SKC,0.00,VWS V14.01,2013-04-24 22:10:00,
2013-04-24 17:15:00,61.3,39.2,30.20,NNE,22,2.0,11.0,44,0.00,,SKC,0.00,VWS V14.01,2013-04-24 22:15:00,
2013-04-24 17:20:00,61.4,39.3,30.19,NE,55,0.0,11.0,44,0.00,,SKC,0.00,VWS V14.01,2013-04-24 22:20:00,
2013-04-24 17:25:00,61.5,39.4,30.19,North,360,4.0,11.0,44,0.00,,SKC,0.00,VWS V14.01,2013-04-24 22:25:00,
2013-04-24 17:30:00,61.7,39.6,30.19,North,360,2.0,11.0,44,0.00,,SKC,0.00,VWS V14.01,2013-04-24 22:30:00,
2013-04-24 17:35:00,61.9,39.2,30.19,North,360,0.0,7.0,43,0.00,,SKC,0.00,VWS V14.01,2013-04-24 22:35:00,
2013-04-24 17:40:00,62.0,39.3,30.19,North,5,3.0,7.0,43,0.00,,SKC,0.00,VWS V14.01,2013-04-24 22:40:00,
2013-04-24 17:45:00,62.1,39.4,30.20,ENE,64,3.0,9.0,43,0.00,,SKC,0.00,VWS V14.01,2013-04-24 22:45:00,
2013-04-24 17:50:00,62.1,39.4,30.19,ENE,65,6.0,9.0,43,0.00,,SKC,0.00,VWS V14.01,2013-04-24 22:50:00,
2013-04-24 17:55:00,62.2,38.8,30.19,NE,34,0.0,9.0,42,0.00,,SKC,0.00,VWS V14.01,2013-04-24 22:55:00,
2013-04-24 18:00:00,62.2,39.5,30.19,NE,53,0.0,9.0,43,0.00,,SKC,0.00,VWS V14.01,2013-04-24 23:00:00,
2013-04-24 18:05:00,62.2,38.8,30.19,NE,53,0.0,6.0,42,0.00,,SKC,0.00,VWS V14.01,2013-04-24 23:05:00,
2013-04-24 18:10:00,62.1,38.8,30.19,ENE,63,4.0,10.0,42,0.00,,SKC,0.00,VWS V14.01,2013-04-24 23:10:00,
2013-04-24 18:15:00,62.1,39.4,30.20,ENE,58,1.0,10.0,43,0.00,,SKC,0.00,VWS V14.01,2013-04-24 23:15:00,
2013-04-24 18:20:00,62.2,39.5,30.20,NE,51,0.0,10.0,43,0.00,,SKC,0.00,VWS V14.01,2013-04-24 23:20:00,
2013-04-24 18:25:00,62.3,40.1,30.20,ENE,76,0.0,10.0,44,0.00,,SKC,0.00,VWS V14.01,2013-04-24 23:25:00,
2013-04-24 18:30:00,62.3,39.5,30.20,ENE,58,0.0,10.0,43,0.00,,SKC,0.00,VWS V14.01,2013-04-24 23:30:00,
2013-04-24 18:35:00,62.3,39.5,30.20,ENE,63,4.0,6.0,43,0.00,,SKC,0.00,VWS V14.01,2013-04-24 23:35:00,
2013-04-24 18:40:00,62.2,39.5,30.20,ENE,65,0.0,7.0,43,0.00,,SKC,0.00,VWS V14.01,2013-04-24 23:40:00,
2013-04-24 18:45:00,62.2,40.0,30.20,ENE,65,0.0,7.0,44,0.00,,SKC,0.00,VWS V14.01,2013-04-24 23:45:00,
2013-04-24 18:50:00,62.2,39.5,30.20,ENE,65,1.0,7.0,43,0.00,,SKC,0.00,VWS V14.01,2013-04-24 23:50:00,
2013-04-24 18:55:00,62.2,40.0,30.20,NE,54,4.0,9.0,44,0.00,,SKC,0.00,VWS V14.01,2013-04-24 23:55:00,
2013-04-24 19:00:00,62.2,40.6,30.20,NE,56,3.0,9.0,45,0.00,,SKC,0.00,VWS V14.01,2013-04-25 00:00:00,
2013-04-24 19:05:00,62.1,40.5,30.20,East,90,0.0,7.0,45,0.00,,SKC,0.00,VWS V14.01,2013-04-25 00:05:00,
2013-04-24 19:10:00,61.9,40.9,30.20,East,88,0.0,7.0,46,0.00,,SKC,0.00,VWS V14.01,2013-04-25 00:10:00,
2013-04-24 19:15:00,61.8,40.8,30.20,East,84,3.0,7.0,46,0.00,,SKC,0.00,VWS V14.01,2013-04-25 00:15:00,
2013-04-24 19:20:00,61.7,40.7,30.21,East,84,0.0,7.0,46,0.00,,SKC,0.00,VWS V14.01,2013-04-25 00:20:00,
2013-04-24 19:25:00,61.7,40.7,30.20,East,83,0.0,7.0,46,0.00,,SKC,0.00,VWS V14.01,2013-04-25 00:25:00,
2013-04-24 19:30:00,61.6,40.1,30.21,East,83,5.0,7.0,45,0.00,,SKC,0.00,VWS V14.01,2013-04-25 00:30:00,
2013-04-24 19:35:00,61.6,40.6,30.20,ENE,76,0.0,5.0,46,0.00,,SKC,0.00,VWS V14.01,2013-04-25 00:35:00,
2013-04-24 19:40:00,61.4,39.9,30.21,ENE,65,0.0,6.0,45,0.00,,SKC,0.00,VWS V14.01,2013-04-25 00:40:00,
2013-04-24 19:45:00,61.3,40.4,30.21,ENE,59,0.0,6.0,46,0.00,,SKC,0.00,VWS V14.01,2013-04-25 00:45:00,
2013-04-24 19:50:00,61.1,40.2,30.21,ENE,59,0.0,6.0,46,0.00,,SKC,0.00,VWS V14.01,2013-04-25 00:50:00,
2013-04-24 19:55:00,61.0,40.1,30.21,ENE,59,0.0,6.0,46,0.00,,SKC,0.00,VWS V14.01,2013-04-25 00:55:00,
2013-04-24 20:00:00,60.9,40.0,30.21,ENE,59,2.0,6.0,46,0.00,,SKC,0.00,VWS V14.01,2013-04-25 01:00:00,
2013-04-24 20:05:00,60.7,40.4,30.21,ENE,59,0.0,3.0,47,0.00,,SKC,0.00,VWS V14.01,2013-04-25 01:05:00,
2013-04-24 20:10:00,60.5,39.6,30.22,NE,56,4.0,6.0,46,0.00,,SKC,0.00,VWS V14.01,2013-04-25 01:10:00,
2013-04-24 20:15:00,60.4,40.1,30.22,NE,56,2.0,6.0,47,0.00,,SKC,0.00,VWS V14.01,2013-04-25 01:15:00,
2013-04-24 20:20:00,60.3,40.0,30.22,NE,56,0.0,6.0,47,0.00,,SKC,0.00,VWS V14.01,2013-04-25 01:20:00,
2013-04-24 20:25:00,60.2,40.5,30.22,NE,56,2.0,6.0,48,0.00,,SKC,0.00,VWS V14.01,2013-04-25 01:25:00,
2013-04-24 20:30:00,60.0,40.3,30.22,ENE,57,0.0,7.0,48,0.00,,SKC,0.00,VWS V14.01,2013-04-25 01:30:00,
2013-04-24 20:35:00,59.9,40.2,30.23,NE,55,0.0,4.0,48,0.00,,SKC,0.00,VWS V14.01,2013-04-25 01:35:00,
2013-04-24 20:40:00,59.7,40.0,30.23,NE,56,0.0,5.0,48,0.00,,SKC,0.00,VWS V14.01,2013-04-25 01:40:00,
2013-04-24 20:45:00,59.6,40.4,30.23,NE,56,0.0,5.0,49,0.00,,SKC,0.00,VWS V14.01,2013-04-25 01:45:00,
2013-04-24 20:50:00,59.5,40.3,30.23,NE,54,0.0,6.0,49,0.00,,SKC,0.00,VWS V14.01,2013-04-25 01:50:00,
2013-04-24 20:55:00,59.3,40.2,30.23,NE,54,2.0,6.0,49,0.00,,SKC,0.00,VWS V14.01,2013-04-25 01:55:00,
2013-04-24 21:00:00,59.3,40.2,30.23,NE,53,1.0,7.0,49,0.00,,SKC,0.00,VWS V14.01,2013-04-25 02:00:00,
2013-04-24 21:05:00,59.2,40.6,30.24,NE,53,2.0,4.0,50,0.00,,SKC,0.00,VWS V14.01,2013-04-25 02:05:00,
2013-04-24 21:10:00,59.2,40.6,30.24,NE,53,0.0,4.0,50,0.00,,SKC,0.00,VWS V14.01,2013-04-25 02:10:00,
2013-04-24 21:15:00,59.2,40.6,30.24,NE,53,1.0,5.0,50,0.00,,SKC,0.00,VWS V14.01,2013-04-25 02:15:00,
2013-04-24 21:20:00,59.1,40.5,30.24,NE,53,0.0,5.0,50,0.00,,SKC,0.00,VWS V14.01,2013-04-25 02:20:00,
2013-04-24 21:25:00,59.1,40.5,30.24,NNE,22,1.0,8.0,50,0.00,,SKC,0.00,VWS V14.01,2013-04-25 02:25:00,
2013-04-24 21:30:00,59.1,40.5,30.25,NE,43,0.0,8.0,50,0.00,,SKC,0.00,VWS V14.01,2013-04-25 02:30:00,
2013-04-24 21:35:00,59.1,40.5,30.25,ENE,60,0.0,5.0,50,0.00,,SKC,0.00,VWS V14.01,2013-04-25 02:35:00,
2013-04-24 21:40:00,59.0,40.9,30.26,ENE,60,0.0,5.0,51,0.00,,SKC,0.00,VWS V14.01,2013-04-25 02:40:00,
2013-04-24 21:45:00,59.0,40.4,30.26,ENE,59,0.0,5.0,50,0.00,,SKC,0.00,VWS V14.01,2013-04-25 02:45:00,
2013-04-24 21:50:00,59.0,40.9,30.25,NE,51,0.0,7.0,51,0.00,,SKC,0.00,VWS V14.01,2013-04-25 02:50:00,
2013-04-24 21:55:00,58.9,40.8,30.26,NE,53,0.0,7.0,51,0.00,,SKC,0.00,VWS V14.01,2013-04-25 02:55:00,
2013-04-24 22:00:00,58.9,40.8,30.25,NE,53,5.0,8.0,51,0.00,,SKC,0.00,VWS V14.01,2013-04-25 03:00:00,
2013-04-24 22:05:00,58.8,40.7,30.26,NNE,21,0.0,8.0,51,0.00,,SKC,0.00,VWS V14.01,2013-04-25 03:05:00,
2013-04-24 22:10:00,58.8,40.7,30.26,ENE,59,5.0,8.0,51,0.00,,SKC,0.00,VWS V14.01,2013-04-25 03:10:00,
2013-04-24 22:15:00,58.8,40.7,30.26,NE,50,1.0,9.0,51,0.00,,SKC,0.00,VWS V14.01,2013-04-25 03:15:00,
2013-04-24 22:20:00,58.7,40.6,30.26,NE,50,0.0,9.0,51,0.00,,SKC,0.00,VWS V14.01,2013-04-25 03:20:00,
2013-04-24 22:25:00,58.7,40.6,30.26,NE,41,2.0,9.0,51,0.00,,SKC,0.00,VWS V14.01,2013-04-25 03:25:00,
2013-04-24 22:30:00,58.7,40.6,30.27,NE,49,0.0,9.0,51,0.00,,SKC,0.00,VWS V14.01,2013-04-25 03:30:00,
2013-04-24 22:35:00,58.7,40.1,30.27,ENE,70,0.0,6.0,50,0.00,,SKC,0.00,VWS V14.01,2013-04-25 03:35:00,
2013-04-24 22:40:00,58.6,40.5,30.27,NE,48,2.0,6.0,51,0.00,,SKC,0.00,VWS V14.01,2013-04-25 03:40:00,
2013-04-24 22:45:00,58.6,40.5,30.28,NNE,25,5.0,6.0,51,0.00,,SKC,0.00,VWS V14.01,2013-04-25 03:45:00,
2013-04-24 22:50:00,58.6,40.0,30.28,NNE,28,2.0,9.0,50,0.00,,SKC,0.00,VWS V14.01,2013-04-25 03:50:00,
2013-04-24 22:55:00,58.6,40.5,30.28,NNE,33,0.0,9.0,51,0.00,,SKC,0.00,VWS V14.01,2013-04-25 03:55:00,
2013-04-24 23:00:00,58.6,40.5,30.29,NNE,31,0.0,9.0,51,0.00,,SKC,0.00,VWS V14.01,2013-04-25 04:00:00,
2013-04-24 23:01:00,58.6,40.5,30.29,NE,40,2.0,9.0,51,0.00,,SKC,0.00,VWS V14.01,2013-04-25 04:01:00,
2013-04-24 23:06:00,58.6,40.5,30.29,NE,34,0.0,5.0,51,0.00,,SKC,0.00,VWS V14.01,2013-04-25 04:06:00,
2013-04-24 23:11:00,58.6,40.5,30.29,ENE,61,3.0,5.0,51,0.00,,SKC,0.00,VWS V14.01,2013-04-25 04:11:00,
2013-04-24 23:16:00,58.6,40.5,30.29,NNE,28,0.0,7.0,51,0.00,,SKC,0.00,VWS V14.01,2013-04-25 04:16:00,
2013-04-24 23:21:00,58.5,40.5,30.29,NNE,29,0.0,7.0,51,0.00,,SKC,0.00,VWS V14.01,2013-04-25 04:21:00,
2013-04-24 23:26:00,58.5,41.0,30.29,NE,35,0.0,7.0,52,0.00,,SKC,0.00,VWS V14.01,2013-04-25 04:26:00,
2013-04-24 23:31:00,58.5,40.5,30.29,NE,37,1.0,7.0,51,0.00,,SKC,0.00,VWS V14.01,2013-04-25 04:31:00,
2013-04-24 23:36:00,58.4,40.4,30.29,NE,49,4.0,7.0,51,0.00,,SKC,0.00,VWS V14.01,2013-04-25 04:36:00,
2013-04-24 23:41:00,58.4,40.4,30.29,NE,48,5.0,7.0,51,0.00,,SKC,0.00,VWS V14.01,2013-04-25 04:41:00,
2013-04-24 23:46:00,58.3,40.3,30.29,NE,45,1.0,7.0,51,0.00,,SKC,0.00,VWS V14.01,2013-04-25 04:46:00,
2013-04-24 23:51:00,58.3,40.3,30.29,NE,36,4.0,7.0,51,0.00,,SKC,0.00,VWS V14.01,2013-04-25 04:51:00,
2013-04-24 23:56:00,58.2,40.2,30.29,ENE,67,1.0,7.0,51,0.00,,SKC,0.00,VWS V14.01,2013-04-25 04:56:00,